Woods Reservoir Weather Center

Moon Phase Calendar



Woods Reservoir Water Level
Online Cameras

 


      

Current Conditions in Estill Springs
3/2/2024 11:50:36 AM

56°F
Feels Like 55
Clouds
Humidity
79%
Pressure
30.15"
Wind
0
Dew Point
49°F
UV Index
2/10 (Low)
Visibility
6 mi

Hourly Forecast

Date & Time Sat, Mar 2
11:00 AM
Sat, Mar 2
12:00 PM
Sat, Mar 2
1:00 PM
Sat, Mar 2
2:00 PM
Sat, Mar 2
3:00 PM
Sat, Mar 2
4:00 PM
Sat, Mar 2
5:00 PM
Sat, Mar 2
6:00 PM
Sat, Mar 2
7:00 PM
Sat, Mar 2
8:00 PM
Sat, Mar 2
9:00 PM
Sat, Mar 2
10:00 PM
Sat, Mar 2
11:00 PM
Sun, Mar 3
12:00 AM
Sun, Mar 3
1:00 AM
Sun, Mar 3
2:00 AM
Sun, Mar 3
3:00 AM
Sun, Mar 3
4:00 AM
Sun, Mar 3
5:00 AM
Sun, Mar 3
6:00 AM
Sun, Mar 3
7:00 AM
Sun, Mar 3
8:00 AM
Sun, Mar 3
9:00 AM
Sun, Mar 3
10:00 AM
Sun, Mar 3
11:00 AM
Sun, Mar 3
12:00 PM
Sun, Mar 3
1:00 PM
Sun, Mar 3
2:00 PM
Sun, Mar 3
3:00 PM
Sun, Mar 3
4:00 PM
Sun, Mar 3
5:00 PM
Sun, Mar 3
6:00 PM
Sun, Mar 3
7:00 PM
Sun, Mar 3
8:00 PM
Sun, Mar 3
9:00 PM
Sun, Mar 3
10:00 PM
Sun, Mar 3
11:00 PM
Mon, Mar 4
12:00 AM
Mon, Mar 4
1:00 AM
Mon, Mar 4
2:00 AM
Mon, Mar 4
3:00 AM
Mon, Mar 4
4:00 AM
Mon, Mar 4
5:00 AM
Mon, Mar 4
6:00 AM
Mon, Mar 4
7:00 AM
Mon, Mar 4
8:00 AM
Mon, Mar 4
9:00 AM
Mon, Mar 4
10:00 AM
Condition
Clouds

Clouds

Clouds

Clouds

Clouds

Clouds

Clouds

Clouds

Clear

Clear

Clear

Clear

Clear

Clear

Clear

Clear

Clear

Clear

Clear

Clouds

Clouds

Clouds

Clouds

Clouds

Clouds

Clouds

Clouds

Clouds

Clouds

Clouds

Clouds

Clouds

Clouds

Clouds

Clouds

Clouds

Clouds

Clouds

Clouds

Clouds

Clouds

Clouds

Clouds

Clouds

Clouds

Clouds

Clouds

Clouds
Temperature 55°F56°F56°F57°F58°F59°F57°F52°F51°F50°F49°F49°F48°F48°F48°F48°F48°F48°F47°F47°F49°F54°F59°F62°F66°F67°F69°F70°F68°F66°F64°F60°F59°F59°F59°F59°F60°F60°F60°F60°F59°F59°F59°F59°F59°F60°F61°F63°F
Feels Like 54°F55°F55°F56°F57°F58°F56°F51°F50°F49°F49°F47°F47°F46°F46°F46°F45°F45°F45°F44°F46°F53°F58°F62°F65°F67°F68°F69°F67°F66°F64°F59°F58°F58°F58°F59°F60°F60°F60°F60°F59°F59°F59°F58°F59°F59°F61°F63°F
Cloudiness 100%100%100%100%84%66%48%40%0%0%0%0%0%0%0%2%3%4%7%19%77%69%56%67%66%72%100%100%100%97%84%72%21%50%57%61%66%72%100%100%100%100%100%100%100%100%100%100%
Visibility 6 mi6 mi6 mi6 mi6 mi6 mi6 mi6 mi6 mi6 mi6 mi6 mi6 mi6 mi6 mi6 mi6 mi6 mi6 mi6 mi6 mi6 mi6 mi6 mi6 mi6 mi6 mi6 mi6 mi6 mi6 mi6 mi6 mi6 mi6 mi6 mi6 mi6 mi6 mi6 mi6 mi6 mi6 mi6 mi6 mi6 mi6 mi6 mi
Precipitation 0%0%0%0%0%0%0%0%0%0%0%0%0%0%0%0%0%0%0%0%0%0%0%0%0%0%0%0%0%0%0%0%0%0%0%0%0%0%0%0%0%0%0%0%0%0%0%0%
Humidity 81%79%78%76%73%71%80%86%89%90%91%92%92%93%94%94%95%95%95%95%94%85%76%69%66%65%62%60%69%73%78%85%86%85%85%85%84%84%85%86%86%86%87%86%86%85%82%77%
Dew Point 49°F49°F49°F49°F50°F50°F50°F48°F47°F47°F46°F46°F46°F46°F46°F46°F46°F46°F46°F45°F47°F49°F51°F52°F54°F55°F55°F55°F57°F57°F57°F55°F54°F54°F54°F54°F55°F55°F55°F55°F55°F55°F55°F54°F55°F55°F55°F55°F
Pressure 30.15"30.15"30.15"30.15"30.12"30.09"30.09"30.09"30.12"30.12"30.15"30.15"30.15"30.15"30.15"30.12"30.12"30.12"30.15"30.15"30.18"30.18"30.15"30.12"30.12"30.12"30.09"30.06"30.06"30.06"30.06"30.06"30.09"30.09"30.09"30.09"30.09"30.09"30.09"30.09"30.09"30.09"30.09"30.12"30.12"30.12"30.15"30.12"
Wind Speed 2.8 mph4.4 mph5.1 mph4.3 mph4.5 mph3.4 mph1.5 mph1.4 mph2.7 mph3.3 mph3.3 mph4.1 mph4.4 mph4.5 mph5.1 mph5.1 mph5 mph5.1 mph5.7 mph6.1 mph5.8 mph6 mph8 mph8.7 mph9.1 mph9.2 mph8.8 mph9.2 mph8.7 mph7.6 mph6.3 mph5.8 mph6.2 mph6.6 mph6.7 mph7 mph7.2 mph6.9 mph6.5 mph6.1 mph6 mph5.8 mph5.7 mph6.2 mph6.1 mph6.3 mph7.3 mph8.4 mph
Wind
Direction
161°
SSE
179°
S
193°
SSW
209°
SSW
225°
SW
241°
WSW
239°
WSW
160°
SSE
142°
SE
134°
SE
130°
SE
138°
SE
135°
SE
133°
SE
129°
SE
133°
SE
134°
SE
134°
SE
134°
SE
132°
SE
135°
SE
142°
SE
143°
SE
153°
SSE
163°
SSE
179°
S
191°
S
190°
S
185°
S
177°
S
161°
SSE
146°
SE
135°
SE
133°
SE
141°
SE
143°
SE
144°
SE
141°
SE
143°
SE
145°
SE
137°
SE
135°
SE
138°
SE
132°
SE
131°
SE
132°
SE
138°
SE
149°
SSE

Daily Forecast

Date High Low Precip. Humidity
Today
Mar 2

Rain
58 °F
45 °F
64%
81%
Sunday
Mar 3

Clouds
71 °F
47 °F
0%
67%
Monday
Mar 4

Clouds
72 °F
58 °F
2%
77%
Tuesday
Mar 5

Rain
66 °F
56 °F
100%
69%
Wednesday
Mar 6

Rain
63 °F
52 °F
100%
79%
Thursday
Mar 7

Clouds
63 °F
46 °F
4%
54%
Friday
Mar 8

Rain
54 °F
51 °F
100%
88%
Saturday
Mar 9

Rain
58 °F
44 °F
100%
87%
Sunday
Mar 10

Rain
48 °F
35 °F
23%
39%
Monday
Mar 11

Clouds
53 °F
31 °F
0%
40%
Tuesday
Mar 12

Clouds
62 °F
35 °F
0%
36%
Wednesday
Mar 13

Clouds
66 °F
45 °F
0%
43%
Thursday
Mar 14

Clouds
66 °F
47 °F
0%
61%
Friday
Mar 15

Clouds
66 °F
53 °F
0%
63%
Saturday
Mar 16

Rain
59 °F
55 °F
100%
95%
Sunday
Mar 17

Rain
54 °F
41 °F
20%
53%

Temperature 8-14 Day Outlook



Precipitation 8-14 Day Outlook




Quick Links
Woods Reservoir News
Woods Reservoir Photos
Woods Reservoir Videos




About Us
Contact Us
Site Map
Search Site
Advertise With Us
   
Woods.USLakes.info
THE WOODS RESERVOIR WEBSITE

Copyright 2024, Lakes Online
Privacy    |    Legal